Location: Beuvrequen
(50.8014°N, 1.6652°E)
Time: 04:03:06
(UTC+00:00)

IRS-1C Rocket - Pass Details

Date: 16 October 2021
Orbit: 801 x 805 km, 98.9° (Epoch: 05 December)

Event Time Altitude Azimuth Distance (km) Brightness Sun altitude
Rises 18:50:09 0° 165° (SSE) 3,299 7.1 -18.3°
Reaches altitude 10° 18:52:28 10° 166° (SSE) 2,374 6.3 -18.7°
Maximum altitude 18:57:43 82° 254° (WSW) 817 4.1 -19.5°
Drops below altitude 10° 19:03:02 10° 343° (NNW) 2,394 6.9 -20.4°
Sets 19:05:23 0° 344° (NNW) 3,330 7.7 -20.7°
